Wind_Speed
3 2 1 5 5 3 5 1 3 2 5 10 6 4 6 10 12 11 11 10 12 15 14 21 18 14 10 11 12 10 10 10
4 2 9 3 7 4 1 4 5 3 5 7 9 11 10 10 11 12 10 10 11 13 14 18 16 12 12 13 14 12 11 11
2 1 3 5 4 5 4 2 2 3 4 3 8 13 15 12 12 12 10 9 10 11 13 12 11 10 9 10 10 10 10 10
2 4 1 1 2 6 5 5 1 3 5 1 5 9 12 13 13 13 12 10 9 10 10 10 9 9 8 8 9 9 9 9
5 4 3 4 4 1 5 2 7 4 3 2 1 9 11 13 13 13 13 11 9 9 7 7 9 7 6 5 6 6 7 7
8 2 1 5 6 6 4 4 5 6 5 5 5 12 14 15 15 14 13 12 10 9 8 7 7 5 3 3 3 5 6 5
2 1 2 2 6 10 5 2 5 4 5 5 10 16 18 16 15 16 15 14 12 11 10 9 8 5 3 0 3 5 5 6
4 2 5 4 5 10 7 4 10 8 9 5 4 10 14 17 18 17 16 16 13 12 12 9 7 6 4 1 2 2 3 3
5 1 4 5 12 11 5 5 5 6 1 4 5 14 17 18 19 20 18 15 12 11 11 9 8 5 3 2 0 1 2 4
4 5 6 2 2 4 10 7 12 6 3 5 5 10 13 15 17 17 15 14 12 12 10 10 8 5 3 1 1 2 4 6
4 6 2 2 4 5 7 5 11 13 7 6 5 7 5 11 15 16 15 18 17 14 12 9 6 4 2 1 1 2 4 5
3 4 7 1 3 3 4 4 1 6 10 12 11 7 4 13 14 14 19 20 19 16 13 9 6 4 1 1 2 3 5 6
4 4 3 3 3 7 5 2 3 4 8 12 7 2 6 13 13 19 21 20 17 15 11 8 4 2 1 2 4 5 7 7
3 3 5 5 5 4 3 3 2 5 6 9 5 10 12 13 16 18 19 18 15 12 8 6 3 1 1 1 3 4 4 5
4 1 2 1 2 2 1 3 5 9 10 10 12 11 13 13 13 16 17 15 12 9 7 5 4 3 2 2 3 3 3 5
2 4 3 3 2 2 3 4 8 11 12 12 13 13 11 12 11 13 14 13 10 8 6 5 6 5 3 3 3 3 4 6
3 3 4 4 4 4 6 9 12 11 10 10 14 12 12 11 11 12 12 10 9 7 6 6 6 5 3 2 2 3 4 5
1 1 2 0 8 8 12 14 13 13 9 9 9 12 12 9 12 12 12 11 9 7 7 6 6 5 4 1 1 3 3 3
0 2 1 2 6 8 11 12 9 10 11 11 10 13 14 13 12 11 10 9 9 9 8 7 7 5 4 3 1 1 2 4
Wind_Direction
24 64 298 155 198 50 116 83 265 196 269 274 209 228 157 121 118 132 150 152 119 110 102 101 94 88 87 86 79 71 74 94
142 136 62 235 129 156 165 192 238 236 273 255 215 216 176 153 149 149 153 129 110 106 106 94 97 96 88 80 76 69 59 46
198 38 165 149 170 69 110 324 266 289 274 187 248 208 186 169 156 154 151 132 120 116 98 97 93 86 73 64 58 50 41 29
281 143 86 265 179 188 234 186 192 301 278 192 271 205 183 169 159 153 151 143 132 119 115 105 89 81 65 56 46 36 28 28
150 151 167 224 156 158 114 128 188 210 280 17 250 184 181 173 165 160 153 151 146 141 135 133 122 109 91 67 56 29 12 4
214 165 120 175 181 190 263 201 152 232 295 258 205 189 179 178 175 169 168 164 161 160 161 149 128 117 115 84 36 13 354 354
93 187 194 173 190 177 207 167 267 358 225 300 223 197 189 181 172 173 174 175 175 171 170 161 153 151 167 67 5 1 356 357
152 161 182 166 167 185 218 226 257 260 268 250 286 185 185 182 179 183 187 183 180 171 173 167 163 181 190 220 2 26 1 357
186 203 188 209 206 193 198 198 227 243 339 182 182 191 188 190 190 186 186 184 178 175 171 157 175 184 215 246 155 11 342 335
131 184 201 67 17 252 228 241 218 254 210 204 256 209 191 197 195 188 179 170 166 162 155 159 168 182 198 227 312 338 355 346
161 210 331 243 185 175 194 224 223 235 184 160 138 150 193 197 197 188 174 163 157 157 156 161 167 173 153 83 337 331 338 342
161 208 237 207 147 202 201 254 19 217 186 161 163 196 193 169 164 156 155 147 149 150 154 164 170 156 131 190 267 306 336 338
170 217 257 251 226 176 197 21 50 198 182 176 192 2 118 143 142 146 143 142 145 148 159 161 141 82 352 342 352 343 334 341
152 187 220 167 151 212 70 96 122 134 163 156 111 119 134 136 137 139 139 141 146 151 155 144 143 158 312 326 343 330 328 342
227 207 26 258 287 7 212 139 155 144 147 142 133 135 138 139 140 143 147 148 156 158 150 166 185 200 230 250 281 299 332 356
219 176 248 280 231 200 190 132 140 142 145 148 142 146 143 145 146 150 154 155 158 159 178 188 198 197 226 272 272 311 336 350
249 258 272 233 223 152 129 127 130 130 140 142 144 155 156 157 159 161 158 159 170 181 190 194 191 206 226 308 292 323 339 342
312 350 324 140 161 149 147 145 143 133 130 141 154 155 158 157 162 163 169 174 182 192 198 195 198 212 226 258 306 330 325 335
311 15 74 48 134 150 137 140 145 143 148 151 146 148 156 153 164 169 176 188 200 207 208 206 212 224 222 226 232 278 1 4
Height
768 764 771 791 794 787 811 833 822 819 807 785 788 791 794 801 803 807 809 810 809 808 808 803 807 811 814 815 815 815 820 823
772 771 777 777 786 798 802 829 831 816 819 799 795 791 792 800 801 808 807 809 810 810 813 808 811 815 817 816 816 816 817 819
777 781 782 790 789 802 799 811 814 819 798 782 784 780 785 792 799 804 808 809 809 814 813 816 817 818 818 818 819 819 818 819
781 776 776 779 780 776 789 817 819 809 793 781 779 775 780 789 796 801 806 810 813 815 818 820 821 822 823 822 822 822 822 822
786 782 782 780 786 790 784 787 807 805 789 780 781 780 782 789 795 800 805 810 814 818 822 824 825 826 827 828 826 826 825 825
785 777 776 783 784 785 778 786 800 795 784 775 782 782 784 787 794 799 805 810 815 820 823 824 825 828 829 829 829 828 827 826
785 782 778 777 779 787 786 789 787 780 787 772 769 775 776 783 792 800 805 810 814 817 823 825 827 828 830 830 828 827 827 826
783 781 775 777 777 778 783 786 788 785 781 767 766 771 778 783 790 797 802 806 811 815 820 824 826 829 830 829 828 827 826 825
787 786 778 784 768 772 771 773 771 779 763 766 772 774 774 779 785 790 798 805 812 817 820 822 827 829 829 829 827 827 827 826
784 783 801 762 760 760 763 761 761 762 764 765 764 765 767 773 781 788 795 804 812 817 821 824 826 828 828 828 827 827 825 823
784 785 781 767 765 766 765 756 749 754 760 766 770 771 774 773 777 784 791 800 808 815 821 825 826 826 825 826 826 826 826 823
787 785 792 761 757 753 750 769 752 753 758 765 770 773 762 772 778 785 794 800 808 813 820 824 825 825 825 825 826 826 824 821
780 779 770 755 755 753 776 772 755 753 756 762 766 765 768 773 780 787 794 801 808 813 818 820 821 822 823 822 821 820 819 817
783 782 784 752 758 762 754 756 756 758 760 765 769 771 773 777 783 789 796 803 808 813 816 817 818 820 820 820 819 819 818 816
763 759 757 755 753 751 751 753 757 758 762 765 769 774 778 783 788 794 798 803 808 811 814 816 817 818 819 819 819 818 816 813
764 758 755 753 751 752 752 751 755 757 761 764 769 776 782 787 791 796 800 804 807 810 813 814 816 817 818 817 817 815 813 811
759 756 755 752 751 751 754 755 758 763 766 768 772 778 782 788 793 797 800 804 807 809 811 813 814 815 815 814 814 813 811 810
752 749 751 748 748 752 754 757 760 764 771 774 775 779 784 789 793 797 800 803 806 808 810 811 811 812 813 812 811 811 810 809
748 751 751 751 752 754 756 760 763 766 770 774 779 781 785 789 793 797 800 802 804 806 807 809 809 810 810 810 810 809 808 807